Temperature
13 13 13 13 13 13 13 13 13 13 14 14 14 14 14 14 14 14 14 14 14 14 14 14 14 14 14 15 15 15 15 15 15 15 15 15 15 15 15 14 14 14 15
13 13 13 13 13 13 13 13 13 13 13 14 14 14 14 14 14 14 14 14 14 14 14 14 14 14 14 14 14 15 15 15 14 14 14 14 14 14 14 14 14 14 14
13 13 13 13 13 13 13 13 13 13 13 13 13 13 14 13 14 14 13 13 13 13 14 14 14 14 14 14 14 14 14 14 14 14 14 14 14 14 14 14 14 14 14
12 12 12 12 12 12 13 13 13 13 13 13 13 13 13 13 13 13 13 13 13 13 13 13 13 14 14 14 14 14 14 14 14 14 13 13 13 14 14 14 14 14 14
12 12 12 12 12 12 12 12 12 12 13 13 13 13 13 13 13 13 13 13 13 13 13 13 13 13 14 14 14 14 14 14 14 13 13 13 13 13 13 14 14 14 13
11 11 12 12 12 12 12 12 12 12 12 12 13 13 13 13 13 13 13 13 13 13 13 13 13 13 13 13 14 14 14 14 13 13 13 13 13 13 13 13 13 13 13
11 11 11 11 11 11 11 11 11 11 12 12 12 12 12 12 12 12 12 12 12 12 12 12 13 13 13 13 13 13 13 13 13 12 12 12 12 13 13 13 13 13 13
11 11 11 11 11 11 11 11 11 11 12 12 12 12 12 12 12 12 12 12 12 12 12 12 13 13 13 13 13 13 13 13 13 12 12 12 12 12 12 13 13 13 13
10 10 10 10 10 11 11 11 11 11 12 12 12 12 12 12 12 12 12 12 12 12 12 12 12 12 12 13 13 13 13 13 12 12 11 12 12 12 12 12 12 12 12
9 10 10 10 10 10 11 11 11 11 11 12 12 12 12 12 12 12 12 12 12 12 12 12 12 12 12 12 12 12 12 12 11 11 11 11 11 12 12 12 12 12 12
9 9 9 9 10 10 10 10 10 11 11 11 11 11 11 11 11 11 11 11 11 11 11 11 11 12 12 12 12 12 12 11 11 11 11 11 11 11 11 11 11 11 12
9 9 9 9 9 10 10 10 10 10 10 10 11 11 11 11 11 11 11 11 11 11 11 11 11 11 11 11 11 11 11 11 11 10 10 11 11 11 11 11 11 11 11
9 9 9 9 9 9 9 9 10 10 10 10 10 10 10 11 11 11 10 10 10 10 10 10 10 10 11 11 10 10 10 10 10 10 10 10 10 10 10 11 11 11 11
8 8 8 9 9 9 9 9 9 9 9 9 10 10 10 10 10 10 10 10 10 10 10 10 10 10 10 10 10 10 10 10 10 10 10 10 10 10 10 10 10 10 10
8 8 8 8 8 8 9 9 9 9 9 9 9 9 9 9 10 10 10 10 9 9 9 9 9 9 9 9 9 9 9 9 9 9 9 9 9 10 9 10 10 10 10
7 7 7 7 7 8 8 8 8 8 8 8 8 9 9 9 9 9 9 9 9 9 9 9 9 9 9 9 9 9 9 9 9 9 9 9 9 9 9 9 9 9 9
7 6 6 7 7 7 7 7 8 8 8 8 8 8 8 8 8 8 8 8 8 8 8 8 8 8 8 8 8 8 8 8 8 8 8 8 8 9 9 9 9 9 9
6 6 6 6 6 6 6 7 7 7 7 7 7 7 7 7 8 8 8 8 8 8 7 7 7 7 7 8 8 8 8 8 8 8 8 8 8 8 8 8 8 8 8
5 6 5 5 6 6 6 6 6 6 6 7 7 7 7 7 7 7 7 7 7 7 7 7 7 7 7 7 7 7 7 7 7 7 7 7 7 7 7 8 8 8 8
5 5 5 5 5 5 5 5 5 6 6 6 6 6 6 6 6 6 6 6 6 6 6 6 6 6 6 6 6 6 6 6 6 6 6 6 7 7 7 7 7 7 7
4 4 4 4 4 4 5 5 5 5 5 5 5 5 5 5 6 6 6 6 6 6 6 6 5 5 5 5 5 5 5 5 6 6 6 6 6 6 6 6 6 6 6
4 4 4 4 4 4 4 4 4 5 5 5 5 5 5 5 5 5 5 5 5 5 5 5 5 5 5 5 4 4 4 4 4 5 5 5 5 5 5 5 5 6 6
3 3 3 3 3 3 3 4 4 4 4 4 4 4 4 4 4 4 4 4 4 4 4 4 4 4 4 4 4 4 4 4 3 4 4 4 5 5 5 5 5 5 5
2 2 2 3 3 3 3 3 3 3 3 4 4 4 4 4 4 4 4 4 3 3 4 4 3 4 3 3 3 3 3 3 3 3 3 4 4 4 4 4 4 5 5
2 2 2 2 2 2 2 2 2 3 3 3 3 3 3 3 3 3 3 3 3 3 3 3 3 3 3 3 3 3 3 3 3 2 2 3 3 3 3 4 4 4 4
1 1 1 1 2 2 2 2 2 2 2 2 2 2 2 2 2 2 2 2 2 2 2 2 2 2 2 2 2 2 2 2 2 2 2 2 2 3 3 3 3 3 3
Wind_Speed
4 2 2 3 6 8 8 9 9 10 11 12 12 12 12 12 12 12 12 13 13 13 14 15 15 15 15 15 15 16 16 16 16 16 17 17 17 17 16 14 13 16 17
5 4 4 4 7 8 9 9 9 10 11 11 12 12 12 12 12 12 12 12 13 13 14 14 14 15 15 15 15 15 16 16 15 14 14 16 16 15 15 14 14 15 16
6 6 6 6 8 9 9 9 10 10 10 11 12 12 12 12 12 12 12 12 12 13 13 14 14 14 14 14 14 15 15 15 14 11 10 12 14 14 14 15 15 15 15
6 6 6 8 9 9 10 10 10 11 11 11 11 12 12 12 12 12 12 12 12 13 13 13 13 14 14 14 14 14 14 13 12 8 9 10 11 13 13 14 14 14 14
6 6 7 8 9 10 10 10 11 11 11 11 11 11 11 12 12 12 12 12 12 12 12 13 13 13 13 13 13 13 13 12 10 9 10 10 10 12 12 13 13 14 13
6 6 7 9 9 9 10 10 10 10 10 11 11 10 11 11 11 12 12 12 12 12 13 13 13 12 13 12 12 12 11 9 8 9 9 9 9 11 12 12 13 13 12
6 6 7 8 9 9 10 10 10 10 10 10 10 10 10 10 11 11 11 11 11 12 12 12 12 12 12 12 11 11 10 8 8 8 8 9 10 11 11 11 11 12 12
6 6 7 8 8 9 10 10 10 10 10 10 10 10 9 10 10 10 10 10 10 11 11 11 11 11 12 12 11 10 10 7 7 8 8 8 10 10 10 10 10 10 11
6 6 6 7 7 9 9 10 10 10 10 10 10 10 10 10 10 10 10 9 9 10 10 10 11 11 11 11 11 10 9 7 7 7 7 8 9 9 9 9 9 10 10
6 6 6 6 6 7 8 9 9 11 11 10 10 10 10 10 9 9 9 9 9 9 9 9 10 10 11 11 10 10 8 5 7 7 7 8 9 9 9 9 9 9 9
5 5 5 5 6 6 7 8 9 10 10 10 9 9 8 7 7 7 8 8 8 8 8 9 9 10 9 9 9 8 6 5 6 6 7 9 8 9 9 8 9 8 8
5 4 4 5 5 6 6 6 6 6 7 7 6 6 6 6 6 7 8 9 8 8 8 8 9 8 6 6 6 5 5 5 5 6 7 8 8 8 8 8 8 8 7
6 5 4 4 5 5 5 5 5 5 5 5 6 6 5 6 5 5 5 5 6 6 5 6 6 5 5 4 4 4 4 4 4 5 7 8 7 7 7 7 7 7 6
6 5 4 4 5 5 5 5 5 5 4 4 4 5 5 4 4 4 4 4 4 3 4 4 4 4 5 5 5 4 4 4 4 4 6 7 7 7 7 7 7 6 5
5 5 4 4 5 5 5 4 5 5 4 4 4 5 4 4 4 4 4 4 4 3 3 3 3 4 4 4 4 4 4 3 3 4 4 6 7 7 6 6 6 6 6
6 5 4 4 5 5 5 4 4 5 4 5 4 4 4 4 4 3 4 4 4 3 3 3 3 3 3 3 3 3 3 3 3 3 3 4 6 7 6 6 5 5 5
7 6 5 5 5 5 5 5 4 5 5 4 4 4 4 4 4 3 3 3 3 3 3 3 3 3 3 3 3 3 2 2 2 2 3 3 4 5 6 6 5 4 5
7 6 6 5 5 5 5 5 4 5 4 4 4 4 4 4 4 3 3 3 3 3 2 2 2 2 2 2 1 1 1 2 2 2 2 3 3 3 4 6 6 5 5
7 7 6 5 5 4 4 4 4 5 4 4 4 4 4 4 4 3 3 3 3 3 2 2 2 1 2 1 1 1 1 1 1 1 2 2 2 3 2 3 4 4 4
7 7 7 6 5 5 4 4 4 4 4 4 4 4 4 4 4 3 3 3 3 2 2 2 2 1 1 1 1 1 0 1 1 1 1 1 1 1 2 2 1 2 3
7 7 7 6 6 5 3 3 4 4 4 3 4 4 5 4 4 3 2 3 2 2 2 2 2 2 1 1 1 1 1 1 1 1 1 1 0 0 1 2 1 1 1
7 7 7 7 6 6 4 4 3 4 3 4 4 4 5 5 4 4 3 3 3 2 2 3 3 2 1 1 1 2 2 3 2 2 1 1 1 1 1 2 2 2 2
6 7 7 7 7 7 6 4 2 3 3 4 4 4 5 5 5 5 5 4 4 4 4 4 3 3 3 2 2 2 2 3 1 3 3 3 2 2 2 2 3 3 3
5 6 6 7 7 6 6 6 6 5 5 5 5 5 5 6 6 6 6 5 5 4 4 5 5 4 4 4 3 2 2 2 2 2 3 4 4 3 3 3 3 3 4
4 4 5 6 6 6 6 6 7 6 6 4 5 5 5 6 6 6 7 6 6 5 5 5 5 5 5 5 4 3 3 3 4 4 4 4 4 4 4 4 4 4 4
2 3 4 5 6 6 6 7 7 7 6 6 6 6 6 5 5 7 7 7 7 7 7 6 6 7 6 6 6 5 5 4 5 5 5 5 4 4 4 4 4 4 4
Wind_Direction
158 146 122 84 106 104 98 93 91 93 96 97 95 93 91 90 90 89 88 87 86 85 86 86 86 84 81 80 81 81 79 77 76 76 76 78 80 81 81 80 83 81 79
154 151 130 107 105 107 104 97 94 95 96 96 95 93 90 90 89 89 89 88 87 87 87 87 85 84 83 82 81 81 79 77 76 78 81 83 78 78 79 73 72 82 81
139 139 132 110 103 103 103 103 97 97 99 97 96 94 90 88 88 88 88 87 87 88 87 87 85 84 84 84 82 81 80 79 77 77 86 89 85 78 78 77 80 84 84
136 135 127 111 107 102 99 103 101 97 98 98 97 96 93 89 87 86 85 85 85 87 87 86 85 84 85 85 83 83 82 79 76 76 84 85 86 81 80 80 80 82 82
133 130 118 113 110 105 102 99 98 96 95 98 98 97 95 91 87 86 85 84 82 81 84 88 88 85 85 85 84 84 83 81 81 81 82 83 85 83 81 80 79 77 79
129 125 119 114 112 109 106 102 98 94 93 94 96 97 96 94 89 86 84 83 81 79 81 86 87 87 86 86 86 84 82 80 90 82 82 81 83 86 84 80 79 76 76
126 122 122 115 117 115 109 105 101 97 93 92 93 95 97 97 94 89 85 83 83 82 83 84 86 86 86 86 85 83 80 73 81 82 81 79 79 83 84 82 80 78 75
124 119 116 115 112 114 112 108 104 100 94 92 92 91 91 95 97 93 90 87 85 84 84 85 86 88 86 84 83 82 79 76 85 83 81 79 78 81 84 83 82 80 78
118 116 113 115 116 109 104 103 104 102 96 93 90 89 87 88 92 94 91 90 89 87 85 87 87 88 88 85 81 80 79 70 84 83 79 75 77 79 82 85 84 82 80
117 115 112 110 114 118 112 102 99 96 90 89 85 84 87 88 90 89 92 90 90 90 88 88 89 89 89 86 84 80 78 83 83 81 75 74 75 75 77 80 84 82 78
128 123 119 112 110 111 111 106 101 95 89 88 85 83 89 94 94 92 82 87 90 91 90 89 89 89 91 86 83 80 82 84 83 77 71 71 75 74 74 78 80 82 81
154 146 131 123 117 115 110 113 109 102 98 95 94 93 90 87 81 82 80 79 84 90 93 88 90 92 92 91 85 85 86 78 80 78 70 71 75 76 76 79 81 79 82
166 158 149 134 125 118 113 111 104 99 96 95 94 93 94 90 86 82 84 82 82 84 91 92 92 85 83 85 89 88 82 83 77 77 69 68 70 75 78 78 79 78 78
170 167 161 147 136 128 120 114 109 104 96 93 94 94 96 92 88 85 80 77 74 75 81 86 86 86 86 86 89 89 84 82 84 79 69 67 65 67 74 75 74 74 76
176 170 168 161 151 142 130 118 115 113 109 105 99 95 93 94 93 88 86 80 73 76 79 79 86 91 91 86 85 87 87 86 83 85 82 70 62 61 65 69 71 70 75
185 178 173 169 164 154 145 134 127 124 120 116 107 102 102 97 95 95 89 85 78 72 76 83 85 93 96 90 88 87 84 86 82 85 88 88 72 62 58 61 66 71 76
191 185 181 175 168 166 158 150 139 133 132 122 119 119 113 107 107 104 101 92 85 83 84 87 87 85 91 95 95 85 81 81 88 85 84 80 81 68 56 51 55 57 64
193 189 184 178 173 173 167 159 148 144 140 132 130 132 129 122 118 112 107 103 99 103 96 90 102 106 103 101 105 94 84 79 88 88 90 81 71 67 61 49 47 48 52
199 193 188 182 180 177 174 167 156 151 152 148 142 140 144 139 135 126 115 111 123 112 104 98 113 132 137 116 114 110 109 118 121 108 100 90 74 54 49 47 41 39 43
202 198 195 189 185 182 177 172 164 161 160 156 155 153 157 154 151 145 138 129 125 128 130 126 131 126 149 143 133 116 141 172 172 164 166 117 82 53 24 13 9 22 28
203 201 200 195 190 183 184 190 187 186 180 173 171 171 169 165 158 155 154 153 153 156 160 154 152 150 145 153 147 135 153 186 200 191 206 224 194 21 1 350 342 324 315
204 204 203 202 199 197 201 200 211 191 193 188 182 184 184 181 174 177 175 179 176 174 172 169 162 178 183 190 186 180 200 205 210 238 239 244 250 254 277 293 295 298 305
210 210 211 208 204 203 201 192 187 187 189 196 194 193 195 194 190 190 195 196 194 188 192 193 192 194 203 212 221 211 205 222 237 220 235 239 245 261 270 286 289 281 279
222 216 217 213 208 204 199 201 202 212 211 211 204 202 201 204 203 201 200 206 208 208 204 206 207 216 212 212 222 245 259 233 215 226 225 232 241 247 259 267 280 276 267
237 226 221 216 212 206 204 207 212 221 221 213 207 208 209 210 213 210 208 207 212 217 215 214 217 223 220 223 224 226 237 240 232 230 244 246 248 247 251 252 255 260 259
247 232 229 219 215 210 210 213 217 224 224 214 213 215 216 217 219 219 216 216 215 219 219 219 221 227 230 230 230 224 224 230 224 228 239 244 253 254 251 251 248 250 254
Height
1528 1529 1531 1532 1534 1535 1536 1537 1538 1538 1539 1540 1540 1540 1540 1541 1541 1541 1541 1542 1542 1542 1542 1542 1543 1543 1543 1543 1543 1543 1543 1544 1544 1544 1544 1544 1544 1544 1544 1545 1545 1545 1545
1527 1529 1531 1532 1534 1535 1536 1537 1538 1539 1539 1540 1541 1541 1541 1542 1542 1542 1542 1543 1543 1543 1543 1544 1544 1544 1544 1544 1544 1545 1545 1545 1546 1546 1546 1547 1547 1547 1547 1547 1547 1547 1547
1526 1528 1530 1532 1534 1535 1536 1537 1538 1539 1540 1541 1541 1542 1542 1542 1543 1543 1543 1543 1544 1544 1544 1544 1545 1545 1545 1545 1546 1546 1546 1547 1547 1548 1548 1549 1549 1549 1549 1549 1549 1549 1549
1526 1528 1530 1532 1533 1535 1536 1537 1538 1539 1540 1541 1542 1542 1543 1543 1543 1544 1544 1544 1545 1545 1545 1545 1546 1546 1546 1547 1547 1547 1547 1548 1549 1549 1550 1550 1550 1550 1550 1550 1551 1551 1551
1526 1528 1530 1532 1533 1534 1536 1537 1538 1539 1540 1541 1542 1542 1543 1543 1544 1544 1545 1545 1545 1546 1546 1546 1546 1547 1547 1547 1548 1548 1549 1549 1550 1551 1551 1551 1551 1552 1552 1552 1552 1552 1552
1526 1528 1530 1531 1533 1534 1535 1536 1538 1539 1540 1541 1542 1542 1543 1543 1544 1545 1545 1545 1546 1546 1547 1547 1547 1547 1548 1548 1549 1549 1549 1550 1551 1552 1552 1552 1553 1553 1553 1553 1553 1553 1553
1526 1528 1529 1531 1532 1534 1535 1536 1537 1538 1540 1541 1541 1542 1543 1543 1544 1545 1545 1546 1546 1547 1547 1547 1548 1548 1548 1548 1549 1550 1550 1551 1552 1553 1553 1553 1554 1554 1554 1554 1554 1554 1554
1525 1527 1529 1530 1532 1533 1535 1536 1537 1538 1539 1540 1541 1542 1542 1543 1544 1544 1545 1546 1546 1547 1547 1547 1548 1548 1548 1549 1549 1550 1551 1551 1552 1553 1554 1554 1554 1555 1554 1554 1554 1555 1555
1525 1526 1528 1530 1531 1533 1534 1535 1536 1537 1538 1539 1540 1541 1542 1543 1543 1544 1545 1545 1546 1547 1547 1547 1548 1548 1548 1549 1549 1550 1551 1552 1553 1554 1554 1555 1555 1555 1555 1555 1555 1555 1555
1524 1525 1527 1529 1530 1532 1533 1534 1536 1537 1538 1539 1540 1540 1541 1542 1543 1543 1544 1545 1545 1546 1547 1547 1548 1548 1548 1549 1549 1550 1551 1552 1553 1554 1554 1555 1555 1555 1555 1555 1555 1556 1556
1523 1524 1526 1528 1529 1530 1532 1533 1534 1536 1537 1538 1539 1540 1540 1541 1542 1543 1543 1544 1545 1545 1546 1547 1547 1548 1548 1549 1549 1550 1551 1552 1553 1554 1554 1555 1555 1555 1555 1555 1555 1556 1556
1521 1522 1524 1526 1528 1529 1530 1532 1533 1534 1535 1537 1538 1539 1539 1540 1541 1542 1542 1543 1544 1545 1545 1546 1546 1547 1548 1548 1549 1550 1551 1552 1553 1553 1554 1554 1555 1555 1555 1555 1555 1556 1556
1519 1521 1522 1524 1526 1527 1529 1530 1531 1533 1534 1535 1536 1537 1538 1539 1540 1541 1541 1542 1543 1544 1544 1545 1546 1547 1547 1548 1548 1549 1550 1551 1552 1553 1553 1554 1554 1555 1555 1555 1555 1555 1556
1517 1519 1520 1522 1524 1525 1527 1528 1529 1531 1532 1533 1535 1536 1537 1537 1538 1539 1540 1541 1541 1542 1543 1544 1545 1545 1546 1547 1548 1548 1549 1550 1551 1552 1552 1553 1553 1554 1554 1554 1555 1555 1555
1515 1517 1518 1520 1522 1523 1525 1526 1528 1529 1530 1532 1533 1534 1535 1536 1537 1538 1538 1539 1540 1541 1542 1543 1544 1544 1545 1546 1547 1548 1548 1549 1550 1550 1551 1551 1552 1552 1553 1553 1554 1554 1554
1513 1515 1516 1518 1519 1521 1523 1524 1526 1527 1528 1530 1531 1532 1533 1534 1535 1536 1537 1538 1538 1539 1540 1541 1542 1543 1544 1544 1545 1546 1547 1548 1548 1549 1550 1550 1550 1551 1551 1552 1552 1553 1553
1511 1512 1514 1515 1517 1519 1520 1522 1523 1525 1526 1528 1529 1530 1531 1532 1533 1534 1535 1536 1537 1538 1539 1540 1541 1542 1542 1543 1544 1545 1545 1546 1547 1547 1548 1548 1549 1549 1550 1550 1551 1551 1552
1509 1510 1511 1513 1514 1516 1518 1519 1521 1522 1524 1525 1526 1528 1529 1530 1531 1532 1533 1534 1535 1536 1537 1538 1539 1540 1541 1541 1542 1543 1543 1544 1545 1545 1546 1547 1547 1548 1548 1548 1549 1549 1550
1506 1508 1509 1510 1512 1513 1515 1517 1518 1520 1521 1522 1524 1525 1526 1527 1528 1529 1530 1531 1532 1533 1534 1535 1537 1538 1539 1539 1539 1540 1541 1542 1543 1543 1544 1545 1545 1545 1546 1546 1547 1547 1547
1503 1505 1506 1508 1509 1511 1512 1514 1515 1517 1518 1519 1521 1522 1523 1524 1525 1527 1528 1529 1530 1531 1532 1533 1534 1535 1536 1537 1537 1538 1539 1539 1540 1541 1541 1542 1543 1543 1543 1544 1544 1545 1545
1500 1501 1503 1504 1506 1507 1509 1510 1512 1513 1515 1516 1518 1519 1520 1521 1522 1523 1525 1526 1527 1528 1529 1530 1531 1532 1533 1534 1535 1535 1536 1537 1537 1538 1539 1539 1540 1540 1541 1541 1542 1542 1542
1496 1498 1499 1501 1502 1504 1505 1507 1509 1510 1512 1513 1515 1516 1517 1518 1519 1520 1521 1522 1524 1525 1526 1527 1528 1529 1530 1531 1532 1533 1535 1536 1535 1535 1536 1536 1537 1537 1538 1538 1539 1539 1539
1493 1494 1495 1497 1498 1500 1502 1503 1505 1507 1508 1509 1510 1512 1513 1514 1515 1517 1518 1519 1520 1521 1522 1523 1524 1526 1526 1528 1529 1531 1532 1532 1532 1532 1532 1532 1533 1533 1534 1535 1535 1535 1535
1490 1491 1492 1494 1495 1496 1498 1499 1500 1502 1503 1505 1506 1508 1509 1510 1512 1513 1514 1515 1516 1517 1518 1519 1520 1522 1523 1524 1526 1527 1528 1528 1529 1528 1529 1529 1529 1529 1530 1530 1531 1531 1531
1487 1488 1489 1490 1491 1493 1494 1495 1497 1498 1500 1501 1502 1504 1505 1506 1507 1508 1510 1511 1512 1513 1514 1515 1516 1518 1519 1520 1521 1522 1523 1524 1525 1525 1525 1525 1525 1525 1526 1526 1526 1527 1527
1484 1484 1485 1486 1487 1489 1490 1491 1493 1494 1495 1496 1497 1499 1500 1501 1502 1503 1505 1506 1507 1508 1509 1511 1512 1513 1514 1515 1517 1518 1518 1519 1520 1521 1521 1521 1521 1521 1521 1521 1522 1522 1522